Dewpoint
21 21 28 29 24 25 25 27 24 24 23 26 27 27 28 29 28 28 27 27 27 28 27 28 28 30 30 31 31 31 29 29 29 30 31 32 33 33 35 36 36 37 38 39
21 25 29 26 24 21 23 26 24 28 24 31 30 27 24 24 27 25 26 26 27 28 27 27 27 28 28 29 29 29 28 28 28 29 29 30 30 32 33 34 35 36 36 38
15 21 29 24 26 26 26 26 26 20 26 29 26 24 23 23 23 23 23 24 24 25 25 26 27 28 27 27 27 27 27 26 26 27 27 28 29 30 31 33 34 35 35 36
18 22 19 26 28 30 26 26 28 29 28 27 28 26 23 23 22 21 21 22 23 23 25 25 26 26 27 27 27 26 26 26 26 26 26 26 27 28 30 31 32 33 34 35
19 16 25 25 23 24 26 24 25 24 26 25 28 29 25 24 22 20 21 22 22 23 24 25 25 26 26 26 27 26 26 26 25 26 25 25 26 26 28 29 30 30 31 32
19 15 14 24 23 27 28 23 26 25 26 25 23 21 22 24 21 20 20 21 21 22 23 24 25 26 26 26 26 26 26 26 25 26 25 25 26 25 26 27 28 28 28 29
18 16 23 25 24 29 22 22 26 26 27 26 23 24 24 23 21 20 20 21 21 21 22 23 25 26 25 25 25 26 27 26 26 26 25 25 26 25 24 25 27 28 27 27
18 17 17 25 23 23 26 28 26 26 26 26 25 24 23 21 20 20 20 21 21 21 21 22 23 24 24 24 26 26 26 26 26 27 26 25 25 25 24 24 24 25 27 27
22 24 27 27 27 28 27 25 25 25 25 25 23 22 20 20 19 19 20 20 21 21 21 21 22 22 22 24 25 26 25 25 26 27 27 27 25 25 24 24 23 23 23 25
24 26 26 26 26 27 25 25 25 24 24 23 21 20 19 18 18 18 19 19 20 20 20 20 21 21 22 22 23 24 24 25 25 26 25 26 26 25 23 21 21 22 21 22
27 28 27 26 27 26 26 25 24 23 22 21 20 19 18 17 17 16 17 18 19 19 19 19 20 20 21 21 21 22 22 23 23 24 25 25 25 25 22 22 21 20 21 21
25 29 28 27 28 27 26 24 24 22 21 20 19 17 17 16 16 16 16 16 16 17 18 19 19 19 20 21 21 21 21 21 22 22 22 22 22 23 24 22 21 20 20 22
28 31 29 28 27 27 27 25 23 21 20 19 18 17 16 15 15 15 15 15 16 17 18 18 19 19 20 21 21 21 21 21 21 21 21 20 20 20 20 22 21 21 19 19
29 28 27 27 25 26 25 23 21 20 19 18 17 16 15 14 13 13 13 13 13 15 16 16 17 18 20 21 21 20 21 20 21 21 20 19 19 19 19 18 18 19 21 19
29 28 27 26 25 23 23 20 18 17 17 16 16 15 14 13 11 11 12 13 13 13 14 15 16 17 19 19 20 20 20 18 19 19 17 17 17 16 16 16 15 15 15 16
25 24 24 23 22 20 19 17 16 15 14 14 14 13 11 10 10 10 11 13 13 13 14 15 15 17 18 18 18 18 18 16 15 15 14 14 14 13 13 13 13 13 12 12
23 21 20 19 18 17 15 14 13 13 13 12 11 10 9 9 9 10 11 12 13 13 14 14 15 17 17 18 17 16 16 15 13 12 11 11 11 11 11 12 12 12 12 11
25 24 21 20 17 16 14 13 12 12 12 11 11 11 10 10 9 10 11 11 12 11 11 13 14 15 16 16 16 15 15 13 12 12 10 11 9 9 10 10 10 10 11 11
23 22 20 18 16 14 13 12 12 13 13 12 10 7 7 8 9 10 10 9 9 9 10 12 13 13 14 14 14 14 14 13 11 10 11 10 10 9 8 8 9 10 9 9
19 18 18 17 15 14 13 14 13 12 12 10 8 8 7 7 8 8 9 9 9 10 10 9 10 10 10 10 12 11 13 12 10 10 10 10 10 10 9 7 7 8 8 8
18 17 15 13 13 13 13 12 12 11 10 10 9 8 8 8 8 8 8 8 9 10 7 6 6 7 7 9 8 12 11 11 10 10 10 10 10 9 9 8 8 7 7 7
15 13 12 11 12 11 11 13 12 10 10 9 7 7 8 9 9 8 8 9 7 9 6 5 6 8 9 9 9 10 9 9 9 9 9 9 9 8 8 7 7 7 7 7
14 13 12 12 12 12 12 12 11 11 10 9 8 9 10 9 8 8 7 5 5 7 5 6 7 7 9 10 10 9 8 8 8 8 8 8 8 7 7 6 6 6 6 6
13 13 13 13 13 11 11 12 12 11 11 10 10 10 9 10 10 7 6 7 8 8 8 8 7 7 7 8 8 7 7 7 7 7 7 6 7 7 6 6 5 5 4 4
13 13 13 12 11 11 12 11 11 11 11 11 11 9 9 7 10 9 10 9 8 8 8 7 8 8 8 7 7 6 7 6 5 6 5 5 5 5 5 5 4 4 4 4
13 12 12 12 11 11 11 11 10 11 11 12 12 13 12 10 10 10 10 9 8 7 7 8 8 7 7 7 6 6 6 5 5 4 4 4 4 4 3 3 3 3 3 3
14 13 12 11 12 11 11 11 12 12 13 13 12 13 12 12 11 10 10 10 9 8 8 9 8 7 6 7 7 6 6 6 5 4 5 4 4 4 3 3 3 3 3 3
Wind_Speed
11 12 4 2 8 14 14 15 8 4 5 10 15 16 14 15 20 23 25 25 25 25 26 25 27 24 24 24 24 20 15 20 21 19 19 19 17 17 17 16 17 17 18 18
7 6 12 9 8 14 10 13 13 5 7 4 7 11 18 20 20 23 24 24 23 23 24 24 25 25 22 25 22 20 25 26 22 22 20 19 19 18 19 18 18 17 17 17
3 2 14 4 6 7 12 13 7 12 10 13 7 13 17 20 21 21 23 24 23 23 23 23 23 22 25 25 22 22 23 17 21 23 23 25 25 22 21 21 19 17 16 17
4 4 3 6 2 6 12 10 12 7 11 13 1 6 15 19 20 22 23 24 23 21 21 21 20 21 18 16 17 19 17 19 21 22 22 22 22 22 21 20 20 20 20 20
4 1 8 8 4 3 3 6 10 11 11 15 3 9 10 17 17 17 18 19 19 19 22 23 24 21 20 22 22 21 22 21 21 21 21 22 21 21 22 23 22 23 21 21
4 3 3 6 9 3 4 5 9 10 11 12 13 7 12 14 15 16 16 16 18 18 18 20 22 21 21 21 21 21 21 22 23 23 22 23 23 23 23 23 22 21 22 20
3 3 3 4 8 2 5 3 7 9 9 10 9 6 8 12 14 16 16 17 17 16 18 19 19 19 20 20 23 21 19 20 19 20 20 21 21 20 24 24 22 22 22 20
3 4 4 9 2 3 3 2 5 6 8 7 6 7 10 12 14 15 18 19 19 17 18 17 20 20 20 21 20 19 19 18 19 19 18 19 20 21 22 23 22 23 22 21
3 3 4 8 8 5 2 2 4 5 6 6 6 7 8 10 12 14 16 16 17 18 19 19 20 19 19 19 18 17 16 17 17 16 16 16 18 20 20 22 22 23 23 23
6 6 6 6 6 4 4 4 5 5 6 7 7 8 8 10 11 12 14 16 17 18 20 21 22 22 20 22 21 18 18 19 19 19 21 19 17 18 19 22 23 22 25 24
4 8 8 5 5 4 5 5 6 6 6 6 7 8 9 9 10 11 12 14 15 17 18 19 20 21 21 21 21 20 18 18 20 18 18 17 17 17 19 20 22 23 25 22
2 11 4 10 6 4 4 4 4 3 4 7 8 8 8 9 10 11 11 12 13 15 16 17 19 20 22 22 21 19 16 17 18 17 18 18 17 16 14 16 19 26 25 25
5 7 12 11 6 4 9 6 5 6 6 5 6 6 7 7 9 10 12 13 14 14 15 17 18 19 20 20 19 18 16 17 16 17 18 18 19 19 20 18 17 20 27 27
14 15 9 9 6 10 10 9 7 7 6 5 5 5 6 7 8 10 11 11 13 14 16 17 18 20 20 19 18 18 18 18 15 16 16 17 17 17 17 19 20 20 20 25
9 3 9 14 11 9 8 7 6 5 5 5 5 6 7 8 9 10 11 12 11 13 16 18 19 20 21 21 19 18 17 18 17 15 15 15 15 15 15 16 17 18 19 21
12 13 13 12 11 9 7 6 6 6 6 6 7 7 7 8 8 9 10 11 12 13 14 15 16 18 18 18 17 16 15 18 16 15 15 15 15 15 15 15 15 17 19 22
15 11 11 11 10 9 7 6 7 8 8 8 7 7 6 6 8 9 9 9 9 11 13 14 16 16 16 16 16 14 14 15 16 15 15 15 14 14 14 14 14 14 16 21
5 6 9 10 12 11 10 9 9 9 9 9 8 8 7 7 6 6 7 7 7 9 15 15 15 14 14 16 13 13 13 14 14 14 14 15 15 14 14 13 14 15 15 17
8 10 11 12 11 11 12 11 10 10 10 8 8 7 6 4 4 4 6 7 9 10 15 15 14 13 14 15 14 12 13 13 13 14 14 14 14 14 14 14 14 14 15 15
13 13 14 13 12 13 13 11 11 11 8 9 8 7 6 4 3 3 4 9 9 7 10 13 13 12 13 12 13 11 12 12 12 12 13 13 14 13 13 14 14 14 14 14
14 14 14 14 14 12 12 11 12 11 8 6 6 6 5 3 4 3 2 5 8 9 8 10 12 12 11 12 11 11 11 11 11 11 12 12 12 12 12 12 12 13 13 13
14 15 15 15 15 13 10 10 10 11 9 7 6 6 5 4 3 4 3 5 6 8 7 9 11 12 11 10 10 10 11 10 10 10 10 11 11 11 11 11 12 11 11 11
14 15 16 15 15 14 11 10 10 10 9 8 7 6 3 2 1 0 1 4 5 6 5 8 9 11 10 9 9 9 9 10 10 10 10 9 9 9 10 10 10 10 10 10
15 15 15 14 13 14 13 11 10 9 8 7 6 5 5 4 3 2 4 3 2 2 5 6 6 8 8 7 7 7 8 8 8 8 8 8 8 7 8 9 9 9 8 8
16 16 16 15 15 13 13 14 11 10 9 8 7 7 6 4 3 4 3 2 1 3 2 3 3 5 6 6 6 6 6 7 7 7 7 7 7 7 7 7 7 7 7 7
18 17 15 16 13 13 13 14 11 11 10 9 8 7 7 6 5 5 5 3 3 2 3 2 3 4 4 4 5 5 5 5 5 5 6 6 6 6 6 6 6 6 6 6
15 14 14 14 12 13 13 14 12 12 12 10 9 9 9 8 7 6 5 6 5 4 4 4 3 3 4 5 4 4 5 5 3 5 5 5 5 6 6 6 6 5 4 4
Wind_Direction
269 265 146 14 17 32 30 7 30 87 32 0 7 359 6 5 1 7 11 12 8 9 12 11 10 12 14 21 18 13 14 25 12 15 17 11 13 5 345 331 322 321 312 300
255 115 164 76 37 51 43 19 40 341 51 354 24 7 14 14 13 9 7 8 11 13 16 16 15 10 3 20 9 4 17 24 0 11 15 2 6 360 345 336 333 323 308 301
203 333 142 117 21 71 78 43 20 30 352 349 351 20 19 10 10 8 3 2 7 10 13 17 14 10 14 14 9 10 17 7 9 11 10 9 3 357 345 341 327 321 315 311
260 218 205 124 90 88 94 63 29 31 8 359 185 76 38 20 9 4 2 359 360 2 9 13 13 17 14 11 15 20 19 16 17 13 11 12 3 353 343 336 337 337 335 330
266 351 119 176 17 287 279 85 33 8 8 1 355 278 45 15 10 11 3 2 358 2 3 5 8 9 16 16 12 13 12 11 16 13 10 13 5 354 353 348 348 347 342 339
237 244 220 91 356 325 211 182 18 8 6 357 353 348 13 3 5 7 11 9 0 2 6 8 2 3 12 9 5 10 9 8 13 10 11 9 5 1 358 357 355 350 348 344
231 246 115 29 347 112 213 57 12 7 8 13 26 15 344 355 7 10 9 7 6 9 11 7 1 0 12 7 5 359 357 5 8 9 9 8 5 4 6 2 357 356 354 349
210 226 207 356 171 281 59 45 13 10 14 32 31 10 357 359 3 10 9 5 6 8 11 10 6 4 8 10 355 357 359 3 6 7 8 4 2 4 6 5 1 358 352 353
331 54 96 54 89 101 96 88 36 27 20 12 20 10 5 4 5 11 9 6 6 4 3 8 8 10 6 1 357 357 2 3 1 8 9 8 8 7 7 5 8 3 360 354
177 148 134 118 94 98 74 89 64 36 23 18 25 13 16 13 14 16 11 8 6 7 8 6 3 4 5 360 359 0 4 3 2 8 6 10 14 16 13 12 7 7 3 355
102 133 136 134 115 107 103 103 102 67 49 31 20 23 16 21 22 19 19 13 13 9 8 6 2 4 3 1 2 3 5 3 8 8 6 6 13 26 19 22 17 9 8 359
182 150 97 139 133 124 139 111 91 84 67 45 34 25 18 23 21 20 18 15 14 12 9 5 6 5 0 359 2 4 8 7 8 5 7 9 8 9 26 25 25 24 16 15
144 108 110 128 125 115 124 113 94 79 56 53 41 36 33 33 25 19 17 13 11 13 9 7 8 6 2 358 2 4 8 11 8 10 11 9 7 7 3 4 17 25 21 16
129 122 126 155 131 122 119 112 102 90 79 66 59 55 44 39 35 26 18 10 11 14 13 9 9 8 1 359 2 6 9 14 12 12 10 9 9 7 6 8 4 4 14 15
149 115 113 128 131 132 135 138 122 104 100 88 71 60 53 47 37 26 18 13 18 20 15 10 7 3 360 360 2 5 11 10 9 11 14 11 8 10 10 12 11 9 7 10
131 125 132 138 140 139 138 137 127 114 105 96 86 72 65 56 47 39 34 29 27 20 11 8 4 360 357 0 0 6 10 17 12 14 14 15 14 15 14 15 16 16 18 12
141 154 157 155 153 148 135 124 122 118 113 100 86 66 58 64 58 48 37 30 37 27 18 14 1 358 2 3 2 9 10 14 16 20 21 16 18 17 18 18 16 19 24 20
163 163 170 163 155 147 138 130 127 126 117 108 93 83 73 70 65 44 26 22 24 31 20 9 1 2 11 5 6 13 14 17 19 20 22 23 19 20 19 20 20 18 18 21
143 141 142 146 147 144 141 136 129 122 120 119 110 94 88 82 71 55 43 35 28 23 10 4 359 9 12 12 358 20 20 18 21 25 20 22 27 27 25 21 22 24 23 24
132 130 131 130 132 140 133 126 127 126 128 127 123 121 103 81 55 58 64 54 32 11 357 6 3 10 13 16 5 23 20 19 21 20 25 25 24 27 26 29 24 24 26 28
143 141 139 136 131 130 134 137 137 140 143 143 141 132 124 103 44 347 63 47 27 5 4 11 16 4 16 1 16 23 22 21 22 20 18 19 20 24 26 26 28 27 27 26
152 150 146 142 141 136 139 150 143 144 148 143 136 141 146 148 149 94 56 21 33 3 17 21 17 12 6 356 22 22 22 22 24 21 21 19 19 19 23 23 23 24 25 26
157 156 152 153 154 149 146 152 159 159 160 163 164 172 176 111 61 174 102 52 30 24 23 33 10 8 1 21 22 21 23 22 19 20 18 18 18 17 18 19 15 16 18 19
156 158 157 155 148 153 159 164 165 165 167 166 169 179 187 174 161 134 117 129 89 18 38 22 9 7 3 22 22 21 18 18 15 14 11 11 13 12 13 10 8 11 12 16
163 159 159 163 170 177 167 164 164 170 179 192 185 190 206 206 245 163 188 165 181 282 10 61 0 348 10 18 20 13 14 24 13 11 12 11 6 4 4 9 11 9 13 13
168 172 175 178 180 174 174 176 189 190 197 201 205 203 199 199 194 203 199 210 229 232 268 300 342 335 347 357 351 359 352 359 357 8 357 5 4 4 2 359 356 358 3 8
177 175 173 181 190 186 188 192 200 204 205 216 220 199 209 204 209 219 211 214 228 234 244 259 271 306 322 320 312 317 319 331 345 333 337 343 346 352 347 335 338 337 343 353